Regional Weather Roundup
Issued by NWS

Home | Current Version | Previous Version | Graphics & Text | Print | Product List | Glossary On
Versions: 1 2 3 4 5 6 7 8 9 10 11 12 13 14 15 16 17 18 19 20 21 22 23 24 25 26 27 28 29 30 31 32 33 34 35 36 37 38 39 40 41 42 43 44 45 46 47 48 49 50
000
ASUS45 KCYS 241710
RWRWY

WYOMING REGIONAL WEATHER ROUNDUP
NATIONAL WEATHER SERVICE CHEYENNE WY
1000 AM MST WED DEC 24 2014

NOTE:  "FAIR" INDICATES FEW OR NO CLOUDS BELOW 12,000 FEET
WITH NO SIGNIFICANT WEATHER AND/OR OBSTRUCTIONS TO VISIBILITY.

WYZ001-241800-
YELLOWSTONE NATIONAL PARK

CITY           SKY/WX    TMP DP  RH WIND       PRES   REMARKS
LK YELLOWSTONE   N/A     20  15  81 CALM      29.88F
W YELLOWSTONE  NOT AVBL

$$
WYZ002>013-054>058-071-098>099-241800-
NORTHERN WYOMING

CITY           SKY/WX    TMP DP  RH WIND       PRES   REMARKS
JACKSON        CLOUDY    16  14  93 NW6       29.94F WCI   7
CODY           FAIR      37  19  48 SW7       29.73F WCI  32
GREYBULL       FAIR      21  15  78 CALM      29.80S
WORLAND        FAIR      12   8  84 CALM      29.80R
SHERIDAN       FAIR      31  21  66 NW3       29.64S
BUFFALO        FAIR      31  20  63 S5        29.64F WCI  26
GILLETTE       FAIR      39  20  46 SW18G26   29.64F WCI  30
HULETT           N/A    N/A N/A N/A MISG        N/A
NEWCASTLE      FAIR      27  23  86 E3        29.74F

$$
WYZ014>020-022>026-101>103-241800-
CENTRAL WYOMING

CITY           SKY/WX    TMP DP  RH WIND       PRES   REMARKS
BIG PINEY      CLOUDY    17  11  77 CALM      29.97F
PINEDALE       CLOUDY    19  14  79 CALM      29.97F
DUBOIS         NOT AVBL
LANDER         FAIR      14   7  73 CALM      29.80F
RIVERTON       FAIR      15   9  76 CALM      29.82R
CASPER         FAIR      29  16  58 S32G39    29.77F WCI  13
DOUGLAS        FAIR      40  20  44 W15       29.74F WCI  32

$$
WYZ021-027>030-104>119-241800-
SOUTHERN WYOMING

CITY           SKY/WX    TMP DP  RH WIND       PRES   REMARKS
EVANSTON       FAIR      23  12  62 SW18      29.98F WCI   9
KEMMERER       FAIR      27  14  59 NW5       29.97F WCI  21
FORT BRIDGER   FAIR      32  22  67 SW5       30.01S WCI  27
ROCK SPRINGS   CLOUDY    28  17  63 SW17      29.99R WCI  16
DIXON          FAIR      12   5  74 CALM      30.08F
RAWLINS        CLOUDY    27  16  63 SW18G25   29.94F WCI  14
SARATOGA       FAIR      23  12  63 SE15G22   29.96F WCI  10
LARAMIE        FAIR      25  12  58 SW24G37   29.84F WCI   9
CHEYENNE       FAIR      35  16  45 W29G37    29.76F WCI  22
TORRINGTON     FAIR      41  19  41 W14       29.76F
PINE BLUFFS    FAIR      36  19  51 W20       29.79F WCI  25

$$


USA.gov is the U.S. government's official web portal to all federal, state and local government web resources and services.